Regional Weather Roundup
Issued by NWS

Home | Current Version | Previous Version | Graphics & Text | Print | Product List | Glossary On
Versions: 1 2 3 4 5 6 7 8 9 10 11 12 13 14 15 16 17 18 19 20 21 22 23 24 25 26 27 28 29 30 31 32 33 34 35 36 37 38 39 40 41 42 43 44 45 46 47 48 49 50
199
ASUS44 KLIX 202005
RWRLA
LOUISIANA WEATHER ROUNDUP
NATIONAL WEATHER SERVICE NEW ORLEANS LA
300 PM CDT WED AUG 20 2014

NOTE: "FAIR" INDICATES FEW OR NO CLOUDS BELOW 12,000 FEET WITH NO
      SIGNIFICANT WEATHER AND/OR OBSTRUCTIONS TO VISIBILITY.
      SKY/WX - SKY CONDITION AND SIGNIFICANT WEATHER.
      TMP - AIR TEMPERATURE.    DP   - DEWPOINT TEMPERATURE.
      RH  - RELATIVE HUMIDITY.  PRES - PRESSURE.
      HX  - HEAT INDEX.         WCI  - WIND CHILL INDEX.

*  THESE STATIONS ARE NOT NWS OR FAA STATIONS AND ARE NOT UNDER
   NWS QUALITY CONTROL.

LAZ040-048-061>063-065-066-069-202100-
SOUTHEAST LOUISIANA

CITY           SKY/WX    TMP DP  RH WIND       PRES   REMARKS
N.O. AUDUBON     N/A     80  70  70 MISG        N/A
N.O. INTL ARPT LGT RAIN  85  74  69 CALM      30.06S
N.O. LAKEFRONT PTSUNNY   82  73  74 SE9       30.06F HAZE
N.O. DOWNTOWN* MOCLDY    86  70  58 SE6       30.07S
SLIDELL        PTSUNNY   94  71  47 SW6       30.03F HX 101
BATON ROUGE    CLOUDY    82  74  76 SW10      30.03F THUNDER
BOOTHVILLE     PTSUNNY   90  77  65 S9        30.06F HX 103
BELLE CHASSE   CLOUDY    83  69  62 E9        30.05F THUNDER
BOGALUSA*      FAIR      94  70  45 CALM      30.06F HX 101
GALLIANO*      NOT AVBL
NEW ROADS*     MOCLDY    91  74  57 S6        30.03S THUNDER HX 100
GONZALES*      TSTM      79  76  90 E7G17     30.06R
HAMMOND*       MOSUNNY   93  72  49 SE9       30.05S HX 100
HOUMA*         PTSUNNY   84  72  65 N7        30.06R THUNDER
PORT FOURCHON* PTCLDY    90  75  62 VRB6G12   30.07F HX 100

$$

LAZ041-044-053-054-202100-
SOUTHWEST LOUISIANA

CITY           SKY/WX    TMP DP  RH WIND       PRES   REMARKS
LAKE CHARLES   TSTM      76  71  85 SW13G30   30.03R
LAFAYETTE      TSTM      77  72  84 SE8       30.05R
PATTERSON      MOSUNNY  N/A N/A N/A MISG        N/A
SALT POINT       N/A     92  78  63 SW6       30.03F HX 107
NEW IBERIA     PTSUNNY   92  72  51 VRB6      30.04S HX  99
CHENAULT AIRPK PTSUNNY   88  70  55 SW23G36   30.05R THUNDER

$$

LAZ027-028-202100-
CENTRAL LOUISIANA

CITY           SKY/WX    TMP DP  RH WIND       PRES   REMARKS
FORT POLK      SUNNY     93  71  48 S5        29.99F HX 100
ALEXANDRIA INT MOSUNNY   93  72  50 S5        29.98F HX 101
ALEXANDRIA     MOSUNNY   92  74  55 E6        30.01F HX 101

$$

LAZ001-002-202100-
NORTHWEST LOUISIANA

CITY           SKY/WX    TMP DP  RH WIND       PRES   REMARKS
SHREVEPORT     MOSUNNY   94  71  47 SW9       29.99F HX 101
BARKSDALE AFB  MOSUNNY   95  69  41 S13       29.99F HX 100
DTN SHREVEPORT PTSUNNY   95  69  42 VRB3      29.99F HX 100

$$

LAZ014-016-202100-
NORTHEAST LOUISIANA

CITY           SKY/WX    TMP DP  RH WIND       PRES   REMARKS
MONROE         SUNNY     92  70  48 CALM      30.03F HX  97
TALLULAH       MOSUNNY   91  72  53 SE7       30.03F HX  98

$$




USA.gov is the U.S. government's official web portal to all federal, state and local government web resources and services.